[[{"header":{"parameterUnit":"m.s-1","parameterCategory":1,"la1":30.2991,"la2":30.254,"lo1":-89.0895,"lo2":-89.0444,"dy":0.0017,"dx":0.0017,"nx":28,"ny":28,"refTime":"2024-08-28T09:00:00:Z","depth":0,"parameterNumber":2,"parameterNumberName":"U-component_of_WINDS"},"data":[0,0,0,0,0,0,0,0,0,0,0,0,0,0,0,0,0,0,0,0,0,0,0,0,0,0,0,0,0,0,0,0,0,0,0,0,0,0,0,0,0,0,0,0,0,0,0,0,0,0,0,0,0,0,0,0,0,0,-5.2215,-5.2214,0,-5.2169,-5.2169,-5.2168,-5.2088,-5.2087,-5.2085,-5.2084,-5.2036,-5.2037,-5.2037,0,0,0,0,0,0,0,0,0,0,0,0,0,-5.2234,-5.2234,-5.2215,-5.2214,-5.2214,-5.2169,-5.2169,-5.2168,-5.2089,-5.2087,-5.2085,-5.2083,-5.2036,-5.2037,-5.2037,0,0,0,0,0,0,0,0,0,0,0,0,0,-5.2211,-5.2234,-5.2215,-5.2169,-5.2164,-5.2169,-5.2169,-5.2168,-5.2089,-5.2087,-5.2085,-5.2082,-5.2036,-5.2037,-5.2037,-5.2083,0,0,-5.2037,-5.2037,0,0,0,0,0,0,0,0,-5.2212,-5.221,-5.2176,-5.2172,-5.2167,-5.2132,-5.2158,-5.2139,-5.209,-5.2118,-5.2084,-5.2081,-5.207,-5.2067,-5.2064,-5.2081,-5.2079,-5.2037,-5.2038,-5.2038,-5.2038,0,0,0,0,0,0,0,-5.2214,-5.2212,-5.2197,-5.2176,-5.217,-5.2151,-5.2145,-5.2154,-5.2107,-5.2115,-5.2109,-5.2105,-5.2067,-5.2064,-5.2062,-5.2078,-5.2037,-5.2038,-5.2038,-5.2038,-5.2132,-5.2134,0,0,0,0,0,0,-5.2222,-5.2214,-5.2198,-5.2195,-5.2185,-5.2152,-5.2146,-5.2146,-5.2107,-5.2099,-5.2107,-5.2101,-5.2065,-5.2062,-5.206,-5.2111,-5.2038,-5.2038,-5.2038,-5.2129,-5.2132,-5.2135,0,0,0,0,0,0,-5.2223,-5.2222,-5.22,-5.2203,-5.2199,-5.2154,-5.2155,-5.2146,-5.2142,-5.2101,-5.2092,-5.2112,-5.2063,-5.206,-5.2078,-5.2108,-5.2038,-5.2038,-5.2127,-5.213,-5.2134,-5.2214,0,0,0,0,0,0,-5.2224,-5.2222,-5.2239,-5.2204,-5.2199,-5.2219,-5.2157,-5.2147,-5.2143,-5.2135,-5.2103,-5.2095,-5.2061,-5.2078,-5.2078,-5.2107,-5.2038,-5.2124,-5.2128,-5.2132,-5.2208,-5.222,-5.223,0,0,0,0,0,-5.2225,-5.2263,-5.224,-5.2239,-5.2219,-5.2221,-5.2218,-5.2177,-5.2146,-5.2162,-5.2136,-5.2096,-5.2106,-5.2081,-5.208,-5.211,-5.2121,-5.2127,-5.2132,-5.2204,-5.2218,-5.223,0,0,0,0,0,0,-5.2302,-5.2258,-5.2232,-5.226,-5.2245,-5.2207,-5.2226,-5.2193,-5.2186,-5.2179,-5.2129,-5.2123,-5.2148,-5.2131,-5.2104,-5.2153,-5.2108,-5.2113,-5.2162,-5.2175,-5.2186,-5.2188,-5.2038,0,0,0,0,0,-5.2323,-5.2328,-5.2289,-5.2318,-5.2312,-5.2271,-5.227,-5.2241,-5.2223,-5.2216,-5.219,-5.2174,-5.2174,-5.2174,-5.2171,-5.2207,-5.2199,-5.2227,-5.2238,-5.2247,-5.2251,-5.2269,-5.2281,-5.2152,-5.2152,-5.2152,0,0,-5.2365,-5.2341,-5.2347,-5.2333,-5.2317,-5.2324,-5.2266,-5.2275,-5.2279,-5.2217,-5.2232,-5.2214,-5.2193,-5.222,-5.2231,-5.2207,-5.2286,-5.2254,-5.2261,-5.2261,-5.2276,-5.2288,-5.2299,-5.2156,-5.2155,-5.2155,0,0,-5.2444,-5.2427,-5.2449,-5.2435,-5.2413,-5.2387,-5.2392,-5.236,-5.2346,-5.2361,-5.2315,-5.232,-5.232,-5.2307,-5.23,-5.2379,-5.2342,-5.2379,-5.2433,-5.2451,-5.2462,-5.247,-5.2497,-5.2507,-5.2384,-5.2385,-5.2385,0,-5.2498,-5.2506,-5.2464,-5.2476,-5.2471,-5.2417,-5.2439,-5.2428,-5.2407,-5.2405,-5.2379,-5.2379,-5.2361,-5.2384,-5.2404,-5.2401,-5.2405,-5.2381,-5.2464,-5.2472,-5.2479,-5.2504,-5.2514,-5.2389,-5.2389,-5.2388,-5.2388,0,-5.2573,-5.258,-5.26,-5.2581,-5.2579,-5.2596,-5.2558,-5.2561,-5.2533,-5.2509,-5.2526,-5.2503,-5.2495,-5.2499,-5.2472,-5.2519,-5.2505,-5.2473,-5.2425,-5.2497,-5.2519,-5.2528,-5.2396,-5.2394,-5.2393,-5.2392,0,0,-5.2695,-5.2656,-5.2664,-5.2655,-5.2628,-5.2632,-5.2648,-5.2641,-5.2644,-5.2632,-5.2643,-5.2647,-5.2617,-5.261,-5.2581,-5.2597,-5.2659,-5.2562,-5.2561,-5.2579,-5.271,-5.2732,-5.2744,-5.2636,-5.2638,-5.2639,-5.2711,0,-5.2767,-5.279,-5.2755,-5.2786,-5.2791,-5.2742,-5.2756,-5.2742,-5.2721,-5.2723,-5.27,-5.2702,-5.2663,-5.2659,-5.2673,-5.2649,-5.2684,-5.2643,-5.2645,-5.2646,-5.2649,-5.2756,-5.2779,-5.2847,-5.2719,-5.2721,-5.2722,0,-5.2852,-5.2845,-5.2877,-5.285,-5.2851,-5.2864,-5.2855,-5.2858,-5.2841,-5.2825,-5.2819,-5.2785,-5.2799,-5.2757,-5.2775,-5.2748,-5.2747,-5.2736,-5.2738,-5.2734,-5.2686,-5.2752,-5.2868,-5.2878,-5.2735,-5.2734,-5.2733,0,-5.2936,-5.2935,-5.2954,-5.2948,-5.2917,-5.2927,-5.2915,-5.2896,-5.2895,-5.2888,-5.2886,-5.2881,-5.2878,-5.2875,-5.2841,-5.2813,-5.2864,-5.2818,-5.285,-5.2851,-5.2859,-5.2858,-5.2974,-5.2864,-5.2864,-5.2864,-5.2864,0,-5.3017,-5.3039,-5.2991,-5.3002,-5.3025,-5.2986,-5.3009,-5.2992,-5.2977,-5.2984,-5.2943,-5.2951,-5.2907,-5.2911,-5.2885,-5.2903,-5.2903,-5.289,-5.2882,-5.2892,-5.2893,-5.2888,-5.2882,-5.2866,-5.2866,-5.2865,-5.2865,0,-5.3113,-5.3082,-5.3099,-5.307,-5.3063,-5.3081,-5.3056,-5.3065,-5.3044,-5.3054,-5.3054,-5.302,-5.3022,-5.2989,-5.2985,-5.2968,-5.2997,-5.2983,-5.3003,-5.2997,-5.303,-5.3026,-5.3144,-5.3157,-5.3041,-5.3042,-5.3043,0,-5.3165,-5.3181,-5.3153,-5.3156,-5.3146,-5.315,-5.3148,-5.3111,-5.3111,-5.3095,-5.3107,-5.3106,-5.3103,-5.3109,-5.3084,-5.3081,-5.3064,-5.3106,-5.3063,-5.3073,-5.3062,-5.3061,-5.3062,-5.3114,-5.3115,-5.3116,-5.3117,0,-5.3262,-5.3246,-5.3245,-5.324,-5.324,-5.3234,-5.3225,-5.323,-5.3189,-5.3192,-5.3194,-5.3192,-5.3189,-5.3188,-5.3181,-5.3169,-5.3136,-5.3132,-5.3138,-5.3147,-5.3157,-5.315,-5.3024,-5.3128,-5.3127,-5.3126,-5.3126,-5.3125,-5.3336,-5.3347,-5.333,-5.3331,-5.3321,-5.3314,-5.3322,-5.3302,-5.3303,-5.3297,-5.3276,-5.3282,-5.3267,-5.3254,-5.3245,-5.3249,-5.3229,-5.3239,-5.3241,-5.3244,-5.3249,-5.3159,-5.3248,-5.3248,-5.3248,-5.3247,-5.3247,0,-5.3428,-5.3415,-5.3417,-5.3406,-5.3408,-5.3379,-5.3369,-5.3371,-5.3377,-5.3366,-5.3365,-5.3368,-5.3368,-5.3344,-5.3341,-5.335,-5.3335,-5.335,-5.3347,-5.3345,-5.3268,-5.3262,-5.3362,-5.3362,-5.3362,-5.3362,-5.3362,-5.3362,-5.3476,-5.3493,-5.3476,-5.3489,-5.3476,-5.3482,-5.3478,-5.3472,-5.3463,-5.3468,-5.3469,-5.3453,-5.3437,-5.3434,-5.3433,-5.3426,-5.3426,-5.3446,-5.3434,-5.3362,-5.335,-5.334,-5.3333,-5.3447,-5.3447,-5.3509,-5.351,-5.351]},{"header":{"parameterUnit":"m.s-1","parameterCategory":1,"la1":30.2991,"la2":30.254,"lo1":-89.0895,"lo2":-89.0444,"dy":0.0017,"dx":0.0017,"nx":28,"ny":28,"refTime":"2024-08-28T09:00:00:Z","depth":0,"parameterNumber":3,"parameterNumberName":"V-component_of_WINDS"},"data":[0,0,0,0,0,0,0,0,0,0,0,0,0,0,0,0,0,0,0,0,0,0,0,0,0,0,0,0,0,0,0,0,0,0,0,0,0,0,0,0,0,0,0,0,0,0,0,0,0,0,0,0,0,0,0,0,0,0,4.1313,4.1314,0,4.1405,4.1406,4.1407,4.1444,4.1444,4.1443,4.1443,4.1533,4.1536,4.1538,0,0,0,0,0,0,0,0,0,0,0,0,0,4.1167,4.1169,4.1312,4.1314,4.1315,4.1404,4.1406,4.1407,4.1444,4.1444,4.1443,4.1443,4.1532,4.1535,4.1538,0,0,0,0,0,0,0,0,0,0,0,0,0,4.1241,4.117,4.1312,4.1344,4.1348,4.1404,4.1406,4.1407,4.1444,4.1444,4.1443,4.1443,4.1531,4.1535,4.1539,4.1569,0,0,4.1551,4.1552,0,0,0,0,0,0,0,0,4.1237,4.1247,4.1338,4.1342,4.1346,4.1413,4.1387,4.1461,4.1444,4.1407,4.1443,4.1443,4.1493,4.15,4.1518,4.1573,4.1577,4.1551,4.1553,4.1555,4.1556,0,0,0,0,0,0,0,4.1232,4.1243,4.1349,4.134,4.1345,4.1353,4.1363,4.1401,4.1451,4.141,4.1413,4.1424,4.1495,4.1514,4.152,4.1578,4.1551,4.1554,4.1557,4.1558,4.1666,4.1666,0,0,0,0,0,0,4.1222,4.1238,4.1346,4.1352,4.129,4.1356,4.1368,4.1391,4.145,4.1459,4.1424,4.1425,4.1507,4.1516,4.1523,4.1564,4.1555,4.1559,4.1561,4.1665,4.1666,4.1666,0,0,0,0,0,0,4.1218,4.1231,4.1342,4.1296,4.1311,4.1359,4.1385,4.1393,4.1412,4.1461,4.1469,4.1435,4.1508,4.1518,4.1558,4.1568,4.156,4.1564,4.1664,4.1665,4.1666,4.1645,0,0,0,0,0,0,4.1214,4.123,4.1242,4.1296,4.1313,4.1376,4.1386,4.1395,4.142,4.1422,4.1473,4.1481,4.1508,4.1552,4.1562,4.1573,4.1567,4.1664,4.1665,4.1666,4.1645,4.1645,4.1645,0,0,0,0,0,4.1209,4.1231,4.1242,4.1255,4.133,4.1376,4.1386,4.1418,4.142,4.1433,4.1464,4.1479,4.1565,4.1556,4.1567,4.158,4.1663,4.1665,4.1666,4.1645,4.1645,4.1645,0,0,0,0,0,0,4.1174,4.1238,4.1252,4.1292,4.1329,4.1383,4.1399,4.1417,4.1452,4.1453,4.149,4.1501,4.1539,4.1563,4.1552,4.1613,4.1615,4.1619,4.1596,4.1596,4.1596,4.1589,4.157,0,0,0,0,0,4.1172,4.1206,4.1259,4.1289,4.1308,4.135,4.1372,4.1394,4.1433,4.1448,4.1482,4.1518,4.1554,4.1576,4.1611,4.1649,4.1661,4.1663,4.1663,4.1663,4.1665,4.1689,4.1691,4.167,4.167,4.167,0,0,4.1166,4.1205,4.1224,4.1284,4.1315,4.1349,4.1363,4.1397,4.1423,4.1453,4.1494,4.152,4.1563,4.1603,4.1622,4.1624,4.1674,4.1664,4.1664,4.1666,4.169,4.1692,4.1694,4.1671,4.1671,4.1671,0,0,4.1173,4.1206,4.1236,4.1268,4.1315,4.1344,4.1351,4.1403,4.1423,4.1465,4.1489,4.1519,4.1579,4.161,4.1633,4.1655,4.167,4.1665,4.1664,4.1687,4.1689,4.169,4.1699,4.1702,4.1667,4.1667,4.1667,0,4.1159,4.1212,4.1248,4.1283,4.1309,4.134,4.1371,4.1399,4.1455,4.1472,4.1475,4.1553,4.1583,4.1632,4.1637,4.1655,4.1664,4.1659,4.1686,4.1688,4.169,4.1699,4.1702,4.1667,4.1667,4.1667,4.1667,0,4.1194,4.123,4.1249,4.1305,4.1333,4.1365,4.1406,4.143,4.145,4.1479,4.1522,4.1561,4.1605,4.1619,4.1637,4.167,4.167,4.1679,4.1682,4.169,4.1699,4.1703,4.1665,4.1666,4.1666,4.1666,0,0,4.118,4.1258,4.1264,4.1291,4.1347,4.1376,4.141,4.1456,4.1476,4.1514,4.1544,4.1596,4.1605,4.1631,4.1654,4.1674,4.1691,4.168,4.1682,4.1682,4.1731,4.1724,4.1728,4.1702,4.1703,4.1703,4.1728,0,4.1195,4.1259,4.1294,4.1343,4.1378,4.1409,4.1439,4.1477,4.1505,4.1538,4.1569,4.1605,4.1614,4.1631,4.1651,4.1684,4.1701,4.1683,4.173,4.1731,4.1718,4.1732,4.1725,4.1746,4.1731,4.1732,4.1732,0,4.1221,4.1262,4.1315,4.137,4.1386,4.1412,4.1458,4.1489,4.1533,4.1552,4.1584,4.1607,4.1644,4.1645,4.1698,4.1684,4.1706,4.1725,4.1727,4.1732,4.1732,4.1739,4.1754,4.1757,4.1738,4.1738,4.1737,0,4.1207,4.1275,4.1316,4.1338,4.1402,4.1421,4.1448,4.1492,4.1518,4.1558,4.1575,4.1618,4.1641,4.1674,4.1709,4.1706,4.1758,4.1761,4.1775,4.1775,4.1785,4.1783,4.1803,4.1798,4.1797,4.1797,4.1797,0,4.1221,4.1252,4.1311,4.1336,4.1373,4.1413,4.1448,4.1477,4.1517,4.1548,4.1577,4.1606,4.165,4.1684,4.1711,4.1752,4.1762,4.1778,4.1785,4.1776,4.1774,4.179,4.179,4.1798,4.1798,4.1798,4.1798,0,4.1211,4.1251,4.1299,4.1357,4.1373,4.1397,4.1447,4.1473,4.1504,4.1543,4.1555,4.1603,4.1645,4.1683,4.1738,4.1757,4.1798,4.1806,4.1784,4.1787,4.18,4.1798,4.1831,4.1838,4.1827,4.1827,4.1827,0,4.1217,4.1242,4.1305,4.1329,4.1357,4.1395,4.1422,4.1463,4.149,4.1544,4.1564,4.1609,4.1647,4.1713,4.1752,4.1795,4.1805,4.1814,4.1811,4.1802,4.1806,4.1805,4.1808,4.1813,4.1813,4.1813,4.1813,0,4.1224,4.1244,4.1283,4.133,4.1363,4.1401,4.1441,4.1459,4.1507,4.1536,4.1581,4.1611,4.1669,4.1714,4.1762,4.179,4.181,4.1814,4.1819,4.181,4.1797,4.1805,4.1784,4.1812,4.1812,4.1813,4.1813,4.1813,4.1223,4.1248,4.1296,4.134,4.1375,4.1411,4.1439,4.1475,4.1513,4.1565,4.1587,4.1633,4.1678,4.1745,4.1773,4.1809,4.1813,4.1821,4.1823,4.1824,4.1823,4.1791,4.1818,4.1818,4.1818,4.1818,4.1818,0,4.1232,4.1266,4.1306,4.1361,4.1396,4.1414,4.1459,4.1486,4.1527,4.1568,4.1606,4.1659,4.1703,4.1746,4.1793,4.1814,4.1824,4.1825,4.1823,4.183,4.1817,4.1808,4.1816,4.1816,4.1816,4.1816,4.1816,4.1816,4.1241,4.1285,4.1311,4.1373,4.1406,4.1452,4.1477,4.1511,4.1545,4.1603,4.164,4.1669,4.1712,4.1762,4.1804,4.1816,4.1832,4.183,4.1844,4.1831,4.1831,4.183,4.1822,4.1833,4.1833,4.1855,4.1855,4.1855]}]]